EHI
0 0 0 0 0 0 0 0 0 0 0 0 0 0 0 0 0 0 0 0 0 0 0 0 0 0 0 0 0 0 0 0 0 0 0 0 0 0 0 0 0 0 0
0 0 0 0 0 0 0 0 0 0 0 0 0 0 0 0 0 0 0 0 0 0 0 0 0 0 0 0 0 0 0 0 0 0 0 0 0 0 0 0 0 0 0
0 0 0 0 0 0 0 0 0 0 0 0 0 0 0 0 0 0 0 0 0 0 0 0 0 0 0 0 0 0 0 0 0 0 0 0 0 0 0 0 0 0 0
0 0 0 0 0 0 0 0 0 0 0 0 0 0 0 0 0 0 0 0 0 0 0 0 0 0 0 0 0 0 0 0 0 0 0 0 0 0 0 0 0 0 0
0 0 0 0 0 0 0 0 0 0 0 0 0 0 0 0 0 0 0 0 0 0 0 0 0 0 0 0 0 0 0 0 0 0 0 0 0 0 0 0 0 0 0
0 0 0 0 0 0 0 0 0 0 0 0 0 0 0 0 0 0 0 0 0 0 0 0 0 0 0 0 0 0 0 0 0 0 0 0 0 0 0 0 0 0 0
0 0 0 0 0 0 0 0 0 0 0 0 0 0 0 0 0 0 0 0 0 0 0 0 0 0 0 0 0 0 0 0 0 0 0 0 0 0 0 0 0 0 0
0 0 0 0 0 0 0 0 0 0 0 0 0 0 0 0 0 0 0 0 0 0 0 0 0 0 0 0 0 0 0 0 0 0 0 0 0 0 0 0 0 0 0
0 0 0 0 0 0 0 0 0 0 0 0 0 0 0 0 0 0 0 0 0 0 0 0 0 0 0 0 0 0 0 0 0 0 0 0 0 0 0 0 0 0 0
0 0 0 0 0 0 0 0 0 0 0 0 0 0 0 0 0 0 0 0 0 0 0 0 0 0 0 0 0 0 0 0 0 0 0 0 0 0 0 0 0 0 0
0 0 0 0 0 0 0 0 0 0 0 0 0 0 0 0 0 0 0 0 0 0 0 0 0 0 0 0 0 0 0 0 0 0 0 0 0 0 0 0 0 0 0
0 0 0 0 0 0 0 0 0 0 0 0 0 0 0 0 0 0 0 0 0 0 0 0 0 0 0 0 0 0 0 0 0 0 0 0 0 0 0 0 0 0 0
0 0 0 0 0 0 0 0 0 0 0 0 0 0 0 0 0 0 0 0 0 0 0 0 0 0 0 0 0 0 0 0 0 0 0 0 0 0 0 0 0 0 0
0 0 0 0 0 0 0 0 0 0 0 0 0 0 0 0 0 0 0 0 0 0 0 0 0 0 0 0 0 0 0 0 0 0 0 0 0 0 0 0 0 0 0
0 0 0 0 0 0 0 0 0 0 0 0 0 0 0 0 0 0 0 0 0 0 0 0 0 0 0 0 0 0 0 0 0 0 0 0 0 0 0 0 0 0 0
0 0 0 0 0 0 0 0 0 0 0 0 0 0 0 0 0 0 0 0 0 0 0 0 0 0 0 0 0 0 0 0 0 0 0 0 0 0 0 0 0 0 0
0 0 0 0 0 0 0 0 0 0 0 0 0 0 0 0 0 0 0 0 0 0 0 0 0 0 0 0 0 0 0 0 0 0 0 0 0 0 0 0 0 0 0
0 0 0 0 0 0 0 0 0 0 0 0 0 0 0 0 0 0 0 0 0 0 0 0 0 0 0 0 0 0 0 0 0 0 0 0 0 0 0 0 0 0 0
0 0 0 0 0 0 0 0 0 0 0 0 0 0 0 0 0 0 0 0 0 0 0 0 0 0 0 0 0 0 0 0 0 0 0 0 0 0 0 0 0 0 0
0 0 0 0 0 0 0 0 0 0 0 0 0 0 0 0 0 0 0 0 0 0 0 0 0 0 0 0 0 0 0 0 0 0 0 0 0 0 0 0 0 0 0
0 0 0 0 0 0 0 0 0 0 0 0 0 0 0 0 0 0 0 0 0 0 0 0 0 0 0 0 0 0 0 0 0 0 0 0 0 0 0 0 0 0 0
0 0 0 0 0 0 0 0 0 0 0 0 0 0 0 0 0 0 0 0 0 0 0 0 0 0 0 0 0 0 0 0 0 0 0 0 0 0 0 0 0 0 0
0 0 0 0 0 0 0 0 0 0 0 0 0 0 0 0 0 0 0 0 0 0 0 0 0 0 0 0 0 0 0 0 0 0 0 0 0 0 0 0 0 0 0
0 0 0 0 0 0 0 0 0 0 0 0 0 0 0 0 0 0 0 0 0 0 0 0 0 0 0 0 0 0 0 0 0 0 0 0 0 0 0 0 0 0 0
0 0 0 0 0 0 0 0 0 0 0 0 0 0 0 0 0 0 0 0 0 0 0 0 0 0 0 0 0 0 0 0 0 0 0 0 0 0 0 0 0 0 0
0 0 0 0 0 0 0 0 0 0 0 0 0 0 0 0 0 0 0 0 0 0 0 0 0 0 0 0 0 0 0 0 0 0 0 0 0 0 0 0 0 0 0
Wind_Speed
2 2 2 3 3 3 3 4 4 5 5 6 5 6 6 6 6 5 4 10 14 17 19 19 20 20 19 18 17 17 17 18 19 19 19 21 23 25 27 27 27 28 28
4 4 4 5 5 4 4 4 5 5 4 5 6 7 6 6 5 6 5 7 13 15 17 19 20 20 20 19 18 17 14 15 17 19 19 20 20 22 25 28 28 29 29
7 5 5 5 4 4 4 4 5 5 5 6 7 7 6 6 6 6 6 5 6 10 17 21 22 23 24 24 23 23 22 19 17 17 17 18 18 18 20 22 25 28 30
7 6 5 4 4 4 5 4 5 5 5 5 5 5 5 5 6 6 5 5 5 6 11 19 21 22 22 22 23 24 25 25 24 21 20 20 19 18 18 20 21 22 25
7 6 5 4 5 5 5 4 4 3 4 6 5 5 5 3 3 5 5 6 5 6 5 11 18 18 19 22 23 24 24 24 22 21 20 21 21 22 22 21 21 21 22
7 6 5 5 5 4 5 4 4 3 2 4 5 6 5 2 2 6 6 6 5 7 6 7 8 10 19 23 23 24 24 23 23 22 21 20 20 21 22 23 23 23 23
7 6 5 5 5 4 4 4 3 4 3 4 3 5 5 4 3 7 5 7 8 11 11 11 9 7 9 19 22 25 25 24 22 23 23 22 21 21 22 23 24 24 24
6 6 6 4 4 4 6 5 4 3 3 4 3 3 5 6 5 7 4 6 7 11 9 11 9 7 6 6 16 26 26 23 23 24 24 24 23 23 23 24 25 26 26
7 6 6 5 5 4 4 4 4 3 2 3 3 4 3 5 8 4 4 3 6 6 6 7 7 6 7 7 9 16 22 22 26 25 24 24 25 25 26 26 28 28 28
6 6 6 5 4 3 3 3 3 2 3 3 3 2 1 3 4 7 5 5 6 6 7 7 7 5 7 6 10 17 23 27 26 26 27 27 27 28 28 29 29 30 31
5 5 5 4 3 3 3 3 4 4 3 2 2 3 2 2 3 5 10 7 7 6 6 6 5 5 7 6 5 14 26 26 26 27 29 30 31 31 31 31 31 32 32
3 4 4 3 3 3 3 3 4 4 3 3 3 3 3 3 5 5 9 11 8 6 7 6 5 6 6 4 10 21 24 25 28 30 32 33 33 33 33 33 32 32 31
2 2 2 2 2 3 4 4 4 4 4 4 4 3 3 4 4 5 9 13 13 7 5 5 5 5 4 4 5 19 22 27 29 30 32 34 34 33 33 32 32 32 31
2 1 2 2 3 4 4 4 3 4 4 5 6 5 4 4 4 4 6 11 15 10 5 5 3 4 4 3 9 22 12 23 27 30 32 33 34 33 32 31 32 32 31
2 2 2 3 4 4 5 5 4 5 5 5 5 5 4 4 4 5 6 7 9 17 14 6 4 4 4 5 12 9 7 19 29 29 31 33 34 33 32 32 33 31 30
2 3 3 4 4 5 5 5 5 6 6 6 4 5 4 4 5 6 6 6 6 11 16 9 6 6 7 10 18 11 8 25 26 29 31 32 33 33 32 33 34 32 32
3 3 4 4 5 6 6 6 6 7 7 7 6 5 6 6 6 7 7 8 8 8 13 15 10 7 8 9 11 8 8 9 12 26 32 34 33 33 34 35 35 35 35
3 3 4 5 6 6 7 7 8 8 7 8 7 5 6 7 8 8 8 9 9 9 10 16 14 10 10 9 9 9 12 13 10 25 32 31 32 33 34 34 34 33 31
3 4 4 5 6 7 7 7 7 7 7 7 6 6 6 8 9 9 10 10 9 9 8 12 16 13 10 7 10 13 14 11 14 18 24 26 29 32 33 33 31 31 33
3 5 5 6 6 7 7 7 7 7 7 7 6 6 7 7 10 11 11 8 8 10 10 11 13 14 9 8 9 12 15 9 11 12 17 21 25 29 31 31 33 33 32
4 5 6 7 7 7 7 10 8 8 7 7 6 7 8 13 18 16 13 11 12 11 12 12 14 13 11 10 11 11 15 14 11 8 10 12 12 11 14 22 27 29 30
5 5 6 6 7 8 17 21 17 9 7 7 8 8 9 12 16 22 25 26 24 18 16 13 12 14 15 13 13 14 15 16 14 7 9 14 11 12 11 9 22 30 32
5 6 6 6 7 10 19 21 22 13 8 8 9 9 11 12 18 11 19 25 21 26 22 16 15 15 16 16 16 17 16 16 17 14 13 16 9 11 11 15 28 31 32
4 5 6 7 7 10 19 20 22 10 8 8 9 10 10 10 12 17 15 13 12 10 16 14 11 12 14 13 14 16 17 16 15 11 10 14 12 12 14 12 24 31 31
4 5 6 6 7 10 16 19 20 7 8 10 9 9 11 10 21 28 19 14 11 12 19 24 25 24 29 28 22 14 13 12 14 13 9 10 13 14 13 13 16 27 28
5 5 6 6 7 8 15 20 21 6 7 8 8 9 17 21 26 26 14 9 13 15 13 14 16 19 17 17 23 14 12 13 14 12 8 7 12 12 10 8 7 8 12
Wind_Direction
122 89 58 43 28 25 29 29 22 20 15 4 358 353 345 342 340 337 322 322 328 331 330 328 326 319 310 303 301 297 290 287 286 285 283 278 271 264 260 256 256 255 251
93 77 58 45 34 32 41 45 31 24 12 3 357 351 343 342 343 340 338 343 347 350 1 3 3 3 358 348 336 328 316 302 298 297 298 295 288 281 274 267 261 258 256
82 82 67 50 31 28 35 40 26 23 19 7 350 340 338 341 343 344 354 360 353 358 2 7 12 11 10 6 0 355 351 348 340 331 323 315 304 295 290 285 277 269 263
82 78 66 48 35 38 34 36 23 13 11 357 336 324 325 336 342 355 356 354 354 1 359 14 13 6 5 3 2 358 352 344 339 338 339 337 329 319 309 300 291 284 278
76 77 66 48 44 43 32 28 26 21 2 345 320 313 314 337 352 359 350 357 359 358 355 3 3 358 1 1 358 356 351 345 341 342 343 342 342 340 335 327 319 308 299
71 73 64 49 48 48 32 23 12 2 358 335 315 313 305 336 24 5 5 2 2 1 353 355 358 351 355 356 358 356 351 350 347 342 339 337 337 336 334 331 328 324 320
68 65 59 46 45 53 42 27 9 356 346 340 338 321 324 337 18 9 0 359 360 357 351 356 349 347 348 354 352 347 344 339 338 338 333 329 328 327 326 323 320 319 320
66 67 62 54 42 43 34 26 20 4 345 4 359 347 343 335 345 332 339 359 356 347 337 343 331 342 347 347 339 341 336 335 338 332 326 321 319 319 318 318 316 313 311
69 68 66 63 49 46 32 15 15 27 353 343 16 57 7 320 315 303 341 330 341 324 323 318 321 330 340 342 335 333 331 339 330 323 321 320 318 315 313 312 310 308 306
70 66 63 57 48 39 25 359 15 8 21 2 358 46 220 251 303 310 311 310 309 312 301 310 312 311 326 323 320 329 329 328 325 324 320 316 313 311 310 309 306 304 303
66 65 63 55 42 27 10 3 5 12 21 13 349 330 322 283 240 273 298 306 309 301 294 293 294 304 305 305 314 321 324 320 320 320 317 313 310 308 307 305 303 300 298
56 50 55 48 31 12 358 351 354 0 358 351 334 322 311 298 302 291 297 304 298 289 282 280 283 290 292 314 324 322 316 317 316 314 312 310 307 305 303 300 297 294 294
75 35 38 29 14 356 351 351 351 347 339 335 316 299 288 276 281 291 304 308 303 292 264 254 254 265 291 310 315 314 311 310 309 308 307 306 304 301 298 295 293 291 290
147 96 48 24 8 358 351 349 339 328 322 312 310 304 293 290 294 297 299 308 307 301 279 266 252 243 263 264 292 306 299 302 305 304 304 304 302 299 295 293 291 288 289
119 63 32 8 354 346 338 337 325 312 309 303 302 300 297 294 299 295 292 291 297 306 303 290 280 247 246 267 287 291 274 296 302 300 301 301 298 294 292 292 290 289 291
63 37 8 350 337 331 329 327 312 305 306 302 299 302 301 299 302 300 296 292 285 290 296 299 289 276 276 293 298 294 281 298 299 297 296 297 296 293 293 293 291 289 291
50 18 349 337 330 325 322 315 306 304 300 298 297 301 298 302 305 304 299 294 290 285 290 298 296 292 284 281 290 278 281 277 279 290 293 293 292 293 294 294 293 292 289
21 351 336 329 326 323 317 309 303 305 297 297 293 294 293 309 308 304 300 296 293 283 283 295 301 300 289 283 289 293 299 293 283 289 291 293 294 294 293 292 291 288 288
353 338 332 329 325 319 312 302 293 293 294 290 284 281 286 302 306 302 297 292 288 293 288 294 297 297 293 298 302 296 292 288 290 292 294 294 294 294 293 293 293 295 295
342 337 336 330 322 315 304 298 300 299 294 286 272 267 275 291 298 298 296 291 300 299 294 292 295 295 295 296 295 301 303 292 287 289 290 291 292 294 295 295 294 292 290
351 346 341 331 326 320 319 325 318 309 304 296 275 263 271 302 308 306 308 311 306 300 301 301 301 303 307 308 303 302 300 299 288 284 285 285 285 281 283 286 288 287 285
353 349 339 326 322 329 333 336 334 320 313 302 284 275 285 298 299 310 312 308 306 307 307 306 310 307 304 302 302 301 302 302 300 292 283 292 288 285 282 277 282 286 287
346 337 326 320 315 318 337 341 340 341 331 318 304 299 305 309 313 300 295 300 306 309 312 311 301 300 303 306 304 302 299 297 296 299 297 293 286 284 284 285 289 288 286
332 317 310 310 311 324 340 342 342 348 325 312 305 301 295 291 293 299 301 306 306 312 306 303 295 298 302 300 297 300 298 295 291 287 283 290 293 289 290 285 286 284 284
315 303 302 310 315 320 333 336 338 319 313 309 304 302 306 300 303 315 320 318 319 308 312 314 314 311 310 310 308 305 301 300 298 296 289 283 291 292 288 282 279 282 283
297 303 311 312 310 306 321 331 329 305 303 302 297 295 307 312 317 326 329 326 317 311 315 318 315 310 306 301 305 304 301 297 296 296 288 278 291 298 294 269 264 272 278